Location: M.A.R.S.Observatory
(35.4031°N, 81.5481°W)
Time: 15:24:41
(UTC-05:00)

SL-8 R/B - Visible Passes

Search period start: 22 January 2017 00:00
Search period end: 01 February 2017 00:00
Orbit: 657 x 668 km, 48.4° (Epoch: 22 January)

Date Brightness Start Highest point End Pass type
(mag) Time Alt. Az. Time Alt. Az. Time Alt. Az.
22 Jan 4.3 05:47:16 33° NNW 05:49:00 48° NNE 05:53:38 10° ESE visible
23 Jan 5.9 04:39:14 21° ENE 04:39:14 21° ENE 04:41:23 10° E visible
23 Jan 3.7 06:17:14 24° WNW 06:20:10 75° SW 06:24:56 10° SE visible
24 Jan 4.4 05:09:16 48° ENE 05:09:16 48° ENE 05:13:22 10° ESE visible
24 Jan 4.8 06:47:17 12° WNW 06:51:03 29° SW 06:55:09 10° SSE visible
25 Jan 3.6 05:39:23 64° W 05:39:50 70° SW 05:44:36 10° SE visible
26 Jan 6.1 04:31:34 20° ESE 04:31:34 20° ESE 04:33:07 10° ESE visible
26 Jan 4.8 06:09:35 24° WSW 06:10:42 27° SW 06:14:42 10° S visible
27 Jan 5.2 05:01:51 29° SSE 05:01:51 29° SSE 05:04:16 10° SE visible
28 Jan 5.5 05:32:12 20° SSW 05:32:12 20° SSW 05:34:15 10° S visible
28 Jan 5.7 19:40:06 10° S 19:41:29 15° SSE 19:41:29 15° SSE visible
29 Jan 5.3 20:09:37 10° SSW 20:11:56 27° SSW 20:11:56 27° SSW visible
30 Jan 5.1 18:59:35 10° S 19:03:08 21° SE 19:04:18 19° ESE visible
30 Jan 5.8 20:40:31 10° WSW 20:42:21 23° WSW 20:42:21 23° WSW visible
31 Jan 3.8 19:29:15 10° SW 19:33:56 54° SE 19:34:39 49° ESE visible
31 Jan 6.7 21:12:16 10° W 21:12:41 12° W 21:12:41 12° W visible
